Location: Unspecified
(40.7945°N, 0.0000°E)
Time: 06:41:18
(UTC+00:00)

Explorer 7 - Pass Details

Date: 28 January 2021
Orbit: 484 x 677 km, 50.3° (Epoch: 28 February)

Event Time Altitude Azimuth Distance (km) Brightness Sun altitude
Rises 04:45:09 0° 276° (W) 2,555 - -28.2°
Reaches altitude 10° 04:47:35 10° 291° (WNW) 1,690 - -27.7°
Maximum altitude 04:50:45 24° 347° (NNW) 1,071 - -27.1°
Exits shadow 04:52:32 18° 26° (NNE) 1,317 9.0 -26.8°
Drops below altitude 10° 04:54:02 10° 43° (NE) 1,756 9.9 -26.5°
Sets 04:56:37 0° 57° (ENE) 2,680 11.2 -26.0°
